Weather in Bracknell

United Kingdom     51°24′17″N   0°44′59″E
temp.,
°C
wind,
m/s
gust,
m/s
humid.,
%
clouds,
%
prec.,
mm/h
press.,
hPa
HPBL,
m
12 august, fri
fri1201:00+19ne33540 0.0 102034
04:00+17ne36600 0.0 102078
07:00+19ne38600 0.0 1019201
10:00+27ene46360 0.0 1019683
13:00+32e45230 0.0 10171859
16:00+33ese55190 0.0 10162438
19:00+29ese56260 0.0 1016810
22:00+23e47400 0.0 1017114
13 august, sat
sat1301:00+19ne47540 0.0 1017116
04:00+17nne38660 0.0 1016135
07:00+18nne37695 0.0 1015199
10:00+27ene45390 0.0 1015580
13:00+34e56194 0.0 10131931
16:00+35sse64157 0.0 10123235
19:00+32ese46195 0.0 1011622
22:00+24e510349 0.0 1011227
14 august, sun
sun1401:00+22e3545100 0.0 101173
04:00+21ene3351100 0.0 100939
07:00+21ene2249100 0.0 100935
10:00+29ese232589 0.0 1008485
13:00+33ese2316100 0.0 10072149
16:00+33sse4416100 0.0 10052557
19:00+29sse3622100 0.0 1004202
22:00+23wnw1234100 0.0 100512
15 august, mon
mon1501:00+19sw2252100 0.0 100424
04:00+19wsw2256100 0.0 100320
07:00+21w1151100 0.0 100238
10:00+25w2338100 0.0 1002380
13:00+28wsw1129100 0.0 10021140
16:00+30sw342699 0.2 10011634
19:00+20ne5968100 1.6 1003355
22:00+18ene227598 0.0 100334
16 august, tue
tue1601:00+17nnw337526 0.1 100336
04:00+15nnw1189100 0.0 100314
07:00+17sw118288 0.0 100454
10:00+23wsw125386 0.0 1004702
13:00+28sse1235100 0.0 10042163
16:00+24sse3748100 1.1 1004554
19:00+21nw4567100 1.9 1007307
22:00+17nne11825 1.0 100823